[[{"header":{"parameterUnit":"m.s-1","parameterCategory":1,"la1":30.2992,"la2":30.254,"lo1":-89.0895,"lo2":-89.0443,"dy":0.0025,"dx":0.0025,"nx":19,"ny":19,"refTime":"2026-05-02T09:00:00:Z","depth":0,"parameterNumber":2,"parameterNumberName":"U-component_of_WINDS"},"data":[0,0,0,-0.7233,-0.7235,-0.7314,-0.7314,-0.7432,-0.7434,0,0,0,0,0,0,0,0,0,0,0,-0.7219,-0.722,-0.7233,-0.7235,-0.7314,-0.7314,-0.7432,-0.7434,0,0,0,0,0,0,0,0,0,0,0,-0.7218,-0.722,-0.7221,-0.7235,-0.7314,-0.7314,-0.7432,-0.7366,0,0,0,0,0,0,0,0,0,0,-0.7287,-0.7283,-0.722,-0.7221,-0.7236,-0.7314,-0.7314,-0.7363,-0.7371,-0.7404,0,-0.7435,0,-0.7436,-0.7443,-0.7443,0,0,0,-0.7228,-0.7277,-0.7289,-0.7221,-0.7237,-0.7314,-0.7276,-0.7367,-0.7376,-0.7414,-0.7436,-0.744,-0.7438,-0.7443,-0.7444,-0.7656,-0.7657,0,0,-0.7224,-0.7239,-0.7284,-0.7295,-0.7283,-0.7274,-0.7279,-0.7372,-0.7398,-0.7437,-0.7443,-0.744,-0.7444,-0.7445,-0.7655,-0.7657,0,0,0,-0.7216,-0.7236,-0.7246,-0.7291,-0.7304,-0.7276,-0.7282,-0.7394,-0.7396,-0.7444,-0.7441,-0.7445,-0.7447,-0.7654,-0.7656,-0.7737,0,0,0,-0.7213,-0.7231,-0.7244,-0.7254,-0.7302,-0.735,-0.7302,-0.7389,-0.7399,-0.7441,-0.7445,-0.7448,-0.7652,-0.7655,-0.7731,-0.7774,0,0,0,-0.7211,-0.7231,-0.7245,-0.7255,-0.7289,-0.7348,-0.7355,-0.7391,-0.7398,-0.7443,-0.7448,-0.7651,-0.7654,-0.7727,-0.7766,-0.7837,0,0,0,-0.7213,-0.7316,-0.7247,-0.7361,-0.7289,-0.7396,-0.7354,-0.7433,-0.7481,-0.7446,-0.7652,-0.7655,-0.7725,-0.7761,-0.7832,-0.7902,-0.7931,0,0,-0.7351,-0.7333,-0.7399,-0.7339,-0.7463,-0.7383,-0.7518,-0.7548,-0.7539,-0.7618,-0.7623,-0.7733,-0.7766,-0.7836,-0.8084,-0.8107,0,0,0,-0.7448,-0.7496,-0.7525,-0.7571,-0.7595,-0.7621,-0.7628,-0.7639,-0.7705,-0.7582,-0.7775,-0.7794,-0.7834,-0.7868,-0.7888,-0.7923,-0.767,-0.767,-0.7669,-0.7669,-0.765,-0.7758,-0.7749,-0.7794,-0.7799,-0.7835,-0.7851,-0.7819,-0.7865,-0.789,-0.8043,-0.8082,-0.8097,-0.8134,-0.7921,-0.7922,-0.7922,-0.7922,-0.7873,-0.794,-0.7893,-0.7982,-0.7962,-0.8037,-0.8046,-0.802,-0.8088,-0.8022,-0.8057,-0.799,-0.8123,-0.8155,-0.7928,-0.7927,-0.7926,-0.7926,-0.7925,-0.802,-0.8049,-0.8058,-0.8123,-0.8175,-0.8161,-0.8228,-0.8206,-0.8186,-0.822,-0.8246,-0.8245,-0.8244,-0.8233,-0.8233,-0.8234,-0.8234,-0.8235,-0.8235,-0.817,-0.8178,-0.8238,-0.8271,-0.8298,-0.833,-0.8335,-0.8361,-0.8385,-0.8364,-0.8364,-0.833,-0.8137,-0.8092,-0.8243,-0.8242,-0.8241,-0.824,-0.824,-0.8393,-0.8338,-0.843,-0.8457,-0.8495,-0.8549,-0.8518,-0.8573,-0.8591,-0.8625,-0.8582,-0.8441,-0.8422,-0.8406,-0.8369,-0.8583,-0.8583,-0.8583,-0.8583,-0.8521,-0.8507,-0.8596,-0.8641,-0.8681,-0.8662,-0.8769,-0.8773,-0.8769,-0.8779,-0.8744,-0.8691,-0.8675,-0.8665,-0.8644,-0.8609,-0.8879,-0.8879,-0.888,-0.8659,-0.8648,-0.8743,-0.8737,-0.8764,-0.8789,-0.8888,-0.8942,-0.8926,-0.8891,-0.8788,-0.8776,-0.8689,-0.8661,-0.863,-0.8597,-0.8533,0,0]},{"header":{"parameterUnit":"m.s-1","parameterCategory":1,"la1":30.2992,"la2":30.254,"lo1":-89.0895,"lo2":-89.0443,"dy":0.0025,"dx":0.0025,"nx":19,"ny":19,"refTime":"2026-05-02T09:00:00:Z","depth":0,"parameterNumber":3,"parameterNumberName":"V-component_of_WINDS"},"data":[0,0,0,-7.2411,-7.2417,-7.2656,-7.2656,-7.2968,-7.2971,0,0,0,0,0,0,0,0,0,0,0,-7.2349,-7.2352,-7.2411,-7.2417,-7.2655,-7.2656,-7.2968,-7.2971,0,0,0,0,0,0,0,0,0,0,0,-7.2348,-7.2351,-7.2354,-7.2418,-7.2655,-7.2656,-7.2967,-7.2784,0,0,0,0,0,0,0,0,0,0,-7.255,-7.2503,-7.235,-7.2354,-7.242,-7.2655,-7.2657,-7.2775,-7.2795,-7.2865,0,-7.2933,0,-7.2957,-7.2993,-7.2994,0,0,0,-7.241,-7.2486,-7.2543,-7.2355,-7.2422,-7.2655,-7.2546,-7.2786,-7.2809,-7.2892,-7.2937,-7.2948,-7.2963,-7.2995,-7.2997,-7.3432,-7.3435,0,0,-7.2397,-7.2396,-7.2527,-7.2558,-7.2527,-7.2538,-7.2553,-7.28,-7.2847,-7.2938,-7.2955,-7.2968,-7.2997,-7.3,-7.343,-7.3433,0,0,0,-7.2364,-7.2387,-7.2438,-7.2546,-7.2588,-7.2545,-7.2563,-7.2836,-7.2853,-7.2959,-7.2971,-7.2999,-7.3003,-7.3428,-7.3431,-7.3551,0,0,0,-7.2356,-7.2368,-7.2432,-7.2434,-7.2584,-7.2716,-7.2594,-7.2836,-7.2864,-7.297,-7.2999,-7.3006,-7.3425,-7.3429,-7.3542,-7.3607,0,0,0,-7.2331,-7.2365,-7.2403,-7.2434,-7.2537,-7.2712,-7.2743,-7.2842,-7.2872,-7.2994,-7.3007,-7.3423,-7.3429,-7.3534,-7.3594,-7.3722,0,0,0,-7.2303,-7.2504,-7.2405,-7.2633,-7.2535,-7.2785,-7.2741,-7.2927,-7.3046,-7.3001,-7.3425,-7.3431,-7.3531,-7.3586,-7.3714,-7.3831,-7.388,0,0,-7.2555,-7.2534,-7.2668,-7.2587,-7.2856,-7.2749,-7.3034,-7.3141,-7.3151,-7.3337,-7.3347,-7.3545,-7.3593,-7.372,-7.4152,-7.4191,0,0,0,-7.2748,-7.2845,-7.2916,-7.3031,-7.3121,-7.3201,-7.3266,-7.3305,-7.3464,-7.3248,-7.3625,-7.3654,-7.3729,-7.3784,-7.3818,-7.3882,-7.3457,-7.3456,-7.3455,-7.3104,-7.3109,-7.3331,-7.3365,-7.3477,-7.3542,-7.3632,-7.3695,-7.3665,-7.3754,-7.3809,-7.4071,-7.4137,-7.4162,-7.4228,-7.3871,-7.3871,-7.3872,-7.3872,-7.3475,-7.3613,-7.357,-7.377,-7.3772,-7.3939,-7.4008,-7.3981,-7.4134,-7.403,-7.4095,-7.3982,-7.4204,-7.4263,-7.3881,-7.3879,-7.3878,-7.3877,-7.3877,-7.371,-7.3777,-7.3823,-7.3991,-7.4118,-7.4142,-7.4293,-7.4288,-7.4284,-7.4349,-7.4407,-7.4405,-7.4403,-7.4377,-7.4378,-7.4379,-7.438,-7.438,-7.4381,-7.3935,-7.3984,-7.4114,-7.4226,-7.4299,-7.4394,-7.446,-7.453,-7.4607,-7.4591,-7.4592,-7.4552,-7.4226,-7.4144,-7.4395,-7.4393,-7.4391,-7.4389,-7.4389,-7.4311,-7.4226,-7.4426,-7.45,-7.463,-7.4756,-7.4748,-7.4892,-7.4949,-7.5022,-7.4969,-7.4728,-7.4704,-7.4678,-7.4611,-7.4967,-7.4967,-7.4967,-7.4968,-7.451,-7.4498,-7.4702,-7.482,-7.4934,-7.4948,-7.517,-7.5222,-7.5262,-7.5297,-7.5244,-7.5154,-7.5127,-7.5119,-7.5083,-7.502,-7.5473,-7.5474,-7.5474,-7.4742,-7.4741,-7.4934,-7.4975,-7.5076,-7.5161,-7.537,-7.5504,-7.553,-7.5495,-7.5324,-7.5303,-7.5156,-7.5109,-7.5071,-7.5015,-7.4899,0,0]}]]